CW9443 Weather Reports


time (UTC)temp
C
wind
direction
speed
KPH
gust
KPH
rain 1hr
cm
rain 24hr
cm
rain mn
cm
humidity
%
barometer
mb
20260506013104 16 277 0.0 0.0 0.00 0.00 0.00 68 1012.9
20260506011606 16 277 0.0 0.0 0.00 0.00 0.00 66 1013.0
20260506010057 16 277 0.0 0.0 0.00 0.00 0.00 67 1013.0
20260506003003 16 277 3.2 0.0 0.00 0.00 0.00 68 1012.8
20260506001502 17 264 1.6 0.0 0.00 0.00 0.00 67 1012.7
20260506000001 17 271 1.6 0.0 0.00 0.00 0.00 63 1012.6
20260505233059 18 277 0.0 0.0 0.00 0.00 0.00 56 1012.6
20260505231558 18 266 1.6 0.0 0.00 0.00 0.00 56 1012.5
20260505230121 19 223 1.6 0.0 0.00 0.00 0.00 57 1012.5
20260505223007 18 261 1.6 0.0 0.00 0.00 0.00 55 1012.7
20260505221508 18 226 1.6 0.0 0.00 0.00 0.00 57 1012.8
20260505220025 18 294 3.2 0.0 0.00 0.00 0.00 56 1012.8
20260505213100 19 271 1.6 0.0 0.00 0.00 0.00 51 1013.0
20260505211605 19 273 3.2 0.0 0.00 0.00 0.00 54 1013.0
20260505210107 19 265 4.8 0.0 0.00 0.00 0.00 51 1013.0
20260505203004 18 199 4.8 0.0 0.00 0.00 0.00 53 1013.1
20260505201504 20 227 1.6 0.0 0.00 0.00 0.00 52 1012.8
20260505200004 19 219 4.8 0.0 0.00 0.00 0.00 53 1013.0
20260505193003 18 250 3.2 0.0 0.00 0.00 0.00 57 1013.2
20260505191502 18 220 3.2 0.0 0.00 0.00 0.00 57 1013.3
20260505190001 18 220 1.6 0.0 0.00 0.00 0.00 56 1013.3
20260505183016 18 225 1.6 0.0 0.00 0.00 0.00 59 1013.2
20260505181519 17 227 1.6 0.0 0.00 0.00 0.00 60 1013.1
20260505180015 17 226 1.6 0.0 0.00 0.00 0.00 59 1013.2
20260505173012 17 253 1.6 0.0 0.00 0.00 0.00 57 1013.0
20260505171507 16 265 1.6 0.0 0.00 0.00 0.00 57 1013.0
20260505170004 16 272 0.0 0.0 0.00 0.00 0.00 64 1012.9
20260505163054 16 294 0.0 0.0 0.00 0.00 0.00 69 1012.9
20260505161549 15 296 0.0 0.0 0.00 0.00 0.00 74 1012.7
20260505153053 13 296 0.0 0.0 0.00 0.00 0.00 80 1012.5
20260505151552 13 296 0.0 0.0 0.00 0.00 0.00 82 1012.5
20260505130104 10 265 0.0 0.0 0.00 0.00 0.00 91 1012.1
20260505123055 10 264 0.0 0.0 0.00 0.00 0.00 91 1012.0
20260505121552 10 264 0.0 0.0 0.00 0.00 0.00 91 1011.9
20260505120054 10 265 0.0 0.0 0.00 0.00 0.00 91 1011.9
20260505113046 10 265 0.0 0.0 0.00 0.00 0.00 90 1012.0
20260505111547 11 265 0.0 0.0 0.00 0.00 0.00 90 1012.1
20260505101550 11 265 0.0 0.0 0.00 0.00 0.00 88 1012.1
20260505100046 12 265 0.0 0.0 0.00 0.00 0.00 87 1012.2
20260505093041 12 265 0.0 0.0 0.00 0.00 0.00 85 1012.4
20260505091540 12 265 0.0 0.0 0.00 0.00 0.00 82 1012.5
20260505090043 12 265 0.0 0.0 0.00 0.00 0.00 80 1012.8
20260505083048 12 264 0.0 0.0 0.00 0.00 0.00 79 1013.0
20260505081538 12 265 0.0 0.0 0.00 0.00 0.00 78 1013.3
20260505080043 12 264 0.0 0.0 0.00 0.00 0.00 79 1013.3
20260505073034 12 265 0.0 0.0 0.00 0.00 0.00 77 1013.4
20260505071537 13 264 0.0 0.0 0.00 0.00 0.00 75 1013.4
20260505070026 13 265 0.0 0.0 0.00 0.00 0.00 75 1013.5
20260505063034 13 264 0.0 0.0 0.00 0.00 0.00 75 1013.5
20260505061537 12 265 0.0 0.0 0.00 0.00 0.00 79 1013.5
20260505060038 12 264 0.0 0.0 0.00 0.00 0.00 81 1013.5
20260505053034 13 265 0.0 0.0 0.00 0.00 0.00 80 1013.6
20260505051530 13 265 0.0 0.0 0.00 0.00 0.00 79 1013.7
20260505041534 13 265 0.0 0.0 0.00 0.00 0.00 80 1013.6
20260505040036 13 265 0.0 0.0 0.00 0.00 0.00 78 1013.5
20260505033044 13 272 1.6 0.0 0.00 0.00 0.00 80 1013.4
20260505031553 13 273 0.0 0.0 0.00 0.00 0.00 79 1013.1
20260505030045 14 271 0.0 0.0 0.00 0.00 0.00 77 1013.0
20260505023040 14 271 0.0 0.0 0.00 0.00 0.00 77 1012.9
20260505021536 15 275 0.0 0.0 0.00 0.00 0.00 75 1012.9
20260505020037 15 273 0.0 0.0 0.00 0.00 0.00 75 1013.0